Location: Bottenau
(48.5138°N, 8.0462°E)
Time: 21:14:35
(UTC+00:00)

Daily predictions for brighter satellites

Satellite Brightness Start Highest point End
(mag) Time Altitude Azimuth Time Altitude Azimuth Time Altitude Azimuth
CENTAUR R/B 4.2 18:43:27 10° NW 18:51:14 49° WSW 18:59:38 10° S
CSL-04 Rocket 4.0 18:47:19 10° S 18:52:36 71° WSW 18:57:54 10° NNW
CZ-2C R/B 2.9 18:49:22 10° N 18:54:34 74° WNW 18:59:47 10° SSW
Cosmos 1992 Rocket 4.3 18:50:32 10° NNW 18:55:39 52° ENE 19:00:43 10° SE
DMSP B5D2-2 4.1 18:51:59 10° NNE 18:57:15 74° ESE 19:02:30 10° S
Cosmos 2360 Rocket 2.8 18:52:23 10° NW 18:57:57 60° WSW 19:03:29 10° S
ATLAS 3B R/B 3.1 18:51:24 10° NW 18:58:19 60° NE 19:05:29 10° ESE
Cosmos 2058 Rocket 3.6 18:54:26 10° SSE 18:58:24 36° E 19:02:25 10° NNE
Cosmos 1689 Rocket 3.2 18:58:29 10° N 19:01:15 47° WNW 19:03:58 10° SSW
COSMOS 2428 3.0 18:55:49 10° NNW 19:01:30 57° ENE 19:07:08 10° SE
Cosmos 1953 Rocket 3.5 18:57:44 10° N 19:02:07 74° E 19:06:27 10° SSE
COSMOS 2487 2.7 18:58:55 10° S 19:02:10 44° ESE 19:05:26 10° NE
USA 186 1.8 19:00:17 10° S 19:03:31 83° W 19:06:39 10° NNW
SME Rocket 3.1 19:01:38 10° NNE 19:05:27 89° W 19:10:09 10° SSW
Cosmos 1092 Rocket 4.1 18:59:17 10° N 19:05:33 64° ENE 19:11:42 10° SSE
USA 215 3.7 18:59:15 10° E 19:05:38 58° NNE 19:12:02 10° NW
Cosmos 2333 4.3 19:00:46 10° NNW 19:06:35 86° WSW 19:12:19 10° SSE
Cosmos 1833 4.3 19:03:25 10° SSW 19:09:03 89° WNW 19:14:46 10° NNE
Cosmos 1818 4.3 19:07:16 10° S 19:11:59 31° ESE 19:16:45 10° NE
FALCON 9 DEB 4.2 19:09:54 10° SSW 19:12:45 25° SE 19:15:37 10° E
NOSS 0 Rocket 4.4 19:07:23 10° NNW 19:13:23 47° NE 19:19:06 11° SE
ERS-2 2.7 19:11:10 10° N 19:14:47 61° WNW 19:18:23 10° SSW
Cosmos 2219 Rocket 2.2 19:09:15 10° NNW 19:14:59 80° ENE 19:20:40 10° SSE
Cosmos 44 4.0 19:11:44 10° S 19:16:23 37° ESE 19:21:16 10° NE
Resurs 01 Rocket 2.4 19:12:50 10° SE 19:16:53 35° ENE 19:20:57 10° N
Cosmos 1455 2.3 19:16:02 10° S 19:19:41 53° E 19:23:20 10° NNE
ATLAS 5 CENTAUR R/B 3.7 19:19:38 10° W 19:23:18 29° NNW 19:27:26 10° NNE
Resurs 1-3 3.6 19:23:54 10° SSE 19:28:16 72° ENE 19:32:39 10° N
Cosmos 1633 4.2 19:26:01 10° NNE 19:28:36 18° ENE 19:30:05 15° E
Cosmos 1356 4.2 19:26:56 10° N 19:30:06 34° ENE 19:32:13 17° SE
IGS 5A 4.1 19:27:42 14° SE 19:30:52 38° ENE 19:34:43 10° N
Lacrosse 5 rocket 3.0 19:27:18 10° W 19:31:03 33° NNW 19:35:00 10° NE
ATLAS 5 CENTAUR R/B 1.6 19:29:54 10° WNW 19:31:40 35° SW 19:33:14 15° SSE
Cosmos 405 Rocket 3.2 19:30:36 10° N 19:34:30 45° ENE 19:37:21 16° SE
Cosmos 1428 Rocket 4.5 19:28:58 10° N 19:35:15 82° E 19:41:33 10° S
Cosmos 2237 Rocket 2.7 19:36:16 10° NNW 19:41:42 45° NE 19:45:36 18° ESE
SJ-6B 3.9 19:38:30 10° S 19:42:02 42° W 19:45:38 10° NNW
Cosmos 2279 Rocket 4.2 19:36:10 10° SSE 19:42:06 50° E 19:48:03 10° NNE
SPOT 5 4.5 19:40:17 13° E 19:42:31 18° ENE 19:45:45 10° NNE
Exosat Rocket 3.9 19:35:44 10° NNW 19:42:34 90° WNW 19:47:11 14° SSE
BREEZE-M DEB (TANK) 3.6 19:38:53 10° WSW 19:43:35 67° S 19:48:45 11° E
Meteor 2-10 Rocket 4.1 19:38:25 10° SSW 19:43:37 64° WNW 19:49:04 10° N
Spot 2 Rocket 4.5 19:41:32 17° ESE 19:44:35 31° ENE 19:49:02 10° N
BREEZE-M DEB (TANK) 3.9 19:42:12 10° WSW 19:45:26 82° SSE 19:54:28 10° ENE
SL-8 R/B 4.0 19:41:05 10° W 19:45:50 58° SSW 19:48:58 21° SE
CZ-2C R/B 4.3 19:43:59 10° NNE 19:48:03 34° E 19:50:38 18° SSE
Cosmos 2026 Rocket 4.0 19:42:52 10° N 19:48:58 80° W 19:55:05 10° S
Cosmos 405 3.9 19:46:23 10° SSW 19:49:44 49° WNW 19:53:09 10° N
OBJECT-B 2.7 19:47:37 10° SSW 19:50:30 30° W 19:53:24 10° NNW
Terra 3.6 19:50:06 14° E 19:52:08 17° ENE 19:55:11 10° NNE
BREEZE-M DEB (TANK) 4.2 19:50:34 10° WSW 19:55:02 80° NNW 20:13:37 10° ENE
NOSS 3-4 (A) 4.3 19:49:57 10° WSW 19:55:43 52° NW 20:02:00 10° NE
NOSS 3-4 (C) 4.3 19:50:03 10° WSW 19:55:49 52° NW 20:02:07 10° NE
MetOp-B 4.2 19:52:09 18° SE 19:56:04 61° ENE 20:01:22 10° N
Cosmos 2227 Rocket 3.2 19:57:04 22° SE 19:58:37 24° ESE 20:03:05 10° NE
SPOT 1/Viking Rocket 3.8 19:58:13 22° SE 20:01:26 53° ENE 20:06:32 10° N
Cosmos 389 Rocket 2.5 20:00:15 22° SSE 20:02:15 56° E 20:05:45 10° NNE
Cosmos 2251 Rocket 3.5 19:56:57 10° SSW 20:02:19 84° ESE 20:07:42 10° NNE
Cosmos 2333 Rocket 3.4 19:59:47 10° NW 20:05:06 39° WSW 20:10:22 10° S
Cosmos 2297 Rocket 2.8 20:02:12 17° SSE 20:05:52 35° ESE 20:10:56 10° NE
Cosmos 2266 Rocket 4.4 19:59:58 10° N 20:06:10 49° ENE 20:09:47 24° SE
Cosmos 1634 Rocket 4.3 20:00:39 10° SSW 20:06:55 73° W 20:13:11 10° N
BREEZE-M DEB (TANK) 1.4 20:05:37 10° WNW 20:07:56 81° SSW 20:08:17 58° ESE
SPOT 3 Rocket 3.6 20:03:45 16° SSE 20:07:56 84° WSW 20:13:10 10° NNW
Cosmos 1825 3.4 20:04:43 10° NNW 20:08:17 41° W 20:11:51 10° SSW
Cosmos 2219 3.8 20:05:52 22° SSE 20:08:32 33° ESE 20:13:30 10° NE
ATLAS 2AS CENTAUR R/B 3.4 20:01:26 10° SW 20:09:19 68° NW 20:17:03 10° NE
ARIANE 5 R/B 3.1 20:09:19 29° ESE 20:11:05 44° ENE 20:15:16 10° N
Ariane Rocket 4.2 20:08:50 10° SSW 20:13:35 40° W 20:18:21 10° NNW
Orbus 7S? 3.7 20:17:04 10° WSW 20:20:05 70° NNW 20:26:06 10° NE
CZ-4C R/B 4.2 20:17:20 10° W 20:22:06 30° NNW 20:27:44 10° NE
RESURS DK-1 3.1 20:18:18 10° SW 20:22:21 54° WNW 20:26:26 10° NNE
Landsat 7 3.9 20:20:37 22° S 20:23:39 74° WSW 20:28:25 10° NNW
Genesis I 3.8 20:20:22 10° NNW 20:24:14 46° NE 20:25:22 35° E
USA 245 3.1 20:24:37 42° SSE 20:25:51 76° ENE 20:29:13 10° N
Cosmos-2242 3.2 20:25:50 40° SE 20:26:50 49° E 20:31:00 10° NNE
Cosmos 2180 Rocket 4.4 20:23:19 10° S 20:29:24 86° E 20:35:34 10° N
Cosmos 1655 Rocket 3.9 20:27:47 10° N 20:34:09 86° E 20:37:46 27° S
SL-16 R/B 2.8 20:30:16 10° NNW 20:35:44 44° NE 20:37:53 31° ESE
Cosmos 1980 3.8 20:31:21 10° NNW 20:37:02 73° WSW 20:39:45 32° SSE
Cosmos 614 Rocket 4.2 20:31:55 10° SSW 20:37:03 70° WNW 20:42:10 10° NNE
BREEZE-M DEB (TANK) 4.3 20:34:46 10° W 20:39:38 84° N 21:00:00 10° E
Cosmos 2151 3.1 20:39:31 10° NNW 20:43:50 71° W 20:45:17 40° S
COSMOS 2428 4.4 20:40:40 10° NW 20:45:25 27° WSW 20:49:50 11° SSW
Meteor 2-3 Rocket 3.7 20:40:08 10° NNW 20:45:57 89° ENE 20:48:26 36° S
Cosmos 2344 3.8 20:40:09 10° SW 20:47:34 70° NW 20:55:44 10° NE
USA 215 3.3 20:45:38 34° SSE 20:48:37 66° SW 20:55:09 10° WNW
ATLAS 3B R/B 3.7 20:42:24 10° NW 20:48:51 40° WSW 20:53:12 21° S
FALCON 9 DEB 3.3 20:46:00 10° WSW 20:49:25 71° NNW 20:49:45 64° NNE
Meteor 1-27 4.3 20:47:48 39° SSE 20:49:50 61° E 20:55:34 10° NNE
Cosmos 1812 Rocket 4.2 20:47:57 17° SSW 20:51:11 54° WNW 20:55:36 10° N
Cosmos 2221 4.3 20:53:18 19° ENE 20:53:18 19° ENE 20:55:22 10° NE
Resurs 01 Rocket 3.4 20:50:18 14° SSW 20:53:25 28° W 20:57:18 10° NW
Cosmos 1818 4.3 20:49:59 10° WSW 20:55:20 54° NW 21:00:44 10° NNE
ERS-1 Rocket 2.9 20:54:40 50° SSE 20:55:59 80° ENE 21:01:02 10° NNW
Cosmos 407 Rocket 3.4 20:53:35 19° SSW 20:57:18 84° WNW 21:02:31 10° NNE
Cosmos 2219 Rocket 4.4 20:54:27 10° WNW 20:58:14 18° W 21:01:59 10° SW
Okean 3 Rocket 3.5 20:54:18 10° N 20:58:51 71° E 20:59:21 64° ESE
Cosmos 1766 Rocket 3.3 20:58:52 10° N 21:03:13 78° E 21:03:29 74° ESE
Cosmos 1633 3.8 21:00:12 10° NNW 21:03:30 34° W 21:04:10 31° WSW
CARTOSAT-1 3.8 21:04:22 52° SSW 21:05:10 64° WSW 21:09:29 10° NNW
Meteor 1-4 Rocket 3.8 21:10:11 32° NNE 21:10:11 32° NNE 21:12:14 10° NNE
Lacrosse 5 rocket 3.4 21:07:30 10° NW 21:11:09 27° N 21:14:12 14° ENE
Cosmos 1954 Rocket 3.9 21:12:17 63° SE 21:12:37 64° ESE 21:17:44 10° NNE
COSMOS 2455 3.0 21:18:15 50° ESE 21:18:15 50° ESE 21:23:57 10° NE
Cosmos 1869 3.4 21:18:39 70° N 21:18:39 70° N 21:22:12 10° N
SPOT 5 2.9 21:19:30 58° SW 21:20:05 65° WSW 21:24:48 10° NNW
Cosmos 1140 Rocket 3.9 21:18:31 22° SW 21:21:47 61° WNW 21:26:54 10° NNE
Spot 2 Rocket 4.4 21:21:43 31° SW 21:23:26 41° W 21:28:15 10° NNW
Cosmos 2237 Rocket 3.4 21:20:37 10° NW 21:25:38 34° WSW 21:27:26 27° SW
SeaSat 1 3.9 21:22:11 10° NE 21:24:38 24° ENE 21:24:38 24° ENE
Terra 1.8 21:28:59 70° SW 21:29:19 74° WSW 21:34:07 10° NNW
Timation 1 Rocket 4.2 21:33:37 64° SSE 21:34:19 71° ESE 21:40:17 10° NNE
Cosmos 2082 3.5 21:39:13 74° SE 21:39:25 75° ESE 21:45:03 10° NNE
Cosmos 2263 Rocket 3.7 21:42:46 22° ENE 21:42:46 22° ENE 21:45:21 10° NE
Cosmos 2227 Rocket 2.6 21:38:45 23° SW 21:42:14 62° WNW 21:47:52 10° NNE
USA 229 DEB 4.3 21:36:05 10° NW 21:43:10 56° NE 21:46:08 36° E
USA 229 4.3 21:36:11 10° NW 21:43:15 56° NE 21:46:15 36° E
Cosmos 468 Rocket 3.8 21:38:32 10° NNW 21:43:42 89° WSW 21:43:44 89° S
ARIANE 5 R/B 4.5 21:46:52 21° WSW 21:47:43 22° W 21:51:11 10° NW
Cosmos 1842 Rocket 4.1 21:49:35 55° NNE 21:49:35 55° NNE 21:53:08 10° NNE
Cosmos 2297 Rocket 3.2 21:44:24 10° SW 21:49:48 45° NW 21:55:14 10° NNE
Cosmos 1603 4.3 21:44:23 10° NNW 21:49:54 45° NE 21:50:37 43° ENE
Cosmos 841 Rocket 3.8 21:46:23 10° NNW 21:51:30 53° ENE 21:51:30 53° ENE
Cosmos 2219 4.1 21:47:37 12° SW 21:52:31 46° NW 21:57:57 10° NNE
H-2A R/B 4.2 21:49:44 10° N 21:53:40 50° WNW 21:53:40 50° WNW
Cosmos 1745 Rocket 4.0 21:49:40 10° N 21:55:58 64° ENE 21:56:33 61° ESE
NOSS 3-1 (A) 4.2 21:53:51 10° NW 22:01:05 64° NE 22:04:04 41° ESE
Cosmos 921 Rocket 4.0 21:58:22 10° N 22:01:48 42° NNE 22:01:48 42° NNE
Cosmos 1763 Rocket 3.6 21:58:16 10° NNW 22:02:58 63° W 22:02:58 63° W
S3M 4.0 22:08:54 66° ESE 22:09:07 66° E 22:15:29 10° NNE
Spot 4 4.2 22:11:46 59° NNE 22:11:46 59° NNE 22:15:58 10° N
SL-16 R/B 3.2 22:14:37 10° NW 22:19:44 35° WSW 22:19:46 35° WSW
Sich 1 4.2 22:18:05 10° N 22:20:54 38° NNE 22:20:54 38° NNE
Cosmos 540 Rocket 3.7 22:17:38 10° NNW 22:22:04 65° NW 22:22:04 65° NW
NOSS 3-1 (C) 4.0 22:19:52 10° NW 22:27:19 76° SW 22:28:43 63° S
Cosmos 2221 3.9 22:30:07 35° NW 22:30:07 35° NW 22:33:25 10° N
Meteor 1-20 Rocket 4.4 22:23:45 10° N 22:29:20 67° ENE 22:29:20 67° ENE
Cosmos 1570 Rocket 4.2 22:24:38 10° NNW 22:29:21 68° N 22:29:21 68° N
Cosmos 1386 Rocket 4.4 22:28:32 10° NNW 22:34:34 73° W 22:34:38 72° W
Cosmos 44 Rocket 3.8 22:36:37 60° NW 22:36:37 60° NW 22:41:35 10° NNE
Aureole 1 Rocket 3.7 22:38:07 71° N 22:38:07 71° N 22:42:25 10° NNE
Cosmos 1553 Rocket 4.3 22:39:11 52° WSW 22:39:56 55° WNW 22:45:56 10° N
ALOS 2 3.7 22:49:56 42° N 22:49:56 42° N 22:52:52 10° NNW
Cosmos 1741 Rocket 4.5 22:48:41 57° NW 22:48:41 57° NW 22:53:44 10° NNE
Cosmos 1943 3.4 22:44:05 10° NNW 22:48:59 66° WNW 22:48:59 66° WNW
Lacrosse 5 rocket 2.9 22:46:49 10° NW 22:49:48 37° NNW 22:49:48 37° NNW
ATLAS 5 CENTAUR R/B 4.4 22:52:22 10° NNW 22:56:05 20° NNE 23:00:15 10° ENE
Thor Agena Rocket 4.5 22:55:01 10° NNE 22:58:37 39° NE 22:58:37 39° NE
SeaSat 1 3.3 22:59:33 10° NNE 23:04:15 44° NW 23:04:24 44° WNW
COSMOS 2455 4.0 23:01:18 24° W 23:04:16 39° NW 23:09:55 10° NNE
Cosmos 2315 Rocket 3.9 23:10:31 84° WNW 23:10:31 84° WNW 23:16:52 10° N
Iridium 4 Rocket 4.0 23:11:57 55° N 23:11:57 55° N 23:16:02 10° N
Cosmos 2184 Rocket 4.3 23:06:08 10° N 23:12:22 54° ENE 23:12:34 54° E
Meteor 1-14 Rocket 4.4 23:15:53 10° N 23:21:32 77° NNE 23:21:32 77° NNE
Cosmos 968 Rocket 4.3 23:24:12 46° NE 23:24:12 46° NE 23:28:02 10° NNE
Cosmos 2263 Rocket 2.6 23:24:25 54° NW 23:24:25 54° NW 23:29:50 10° NNE
USA 281 3.1 23:33:03 74° ESE 23:33:34 80° ENE 23:40:11 10° NNW
USA 229 DEB 4.3 23:27:13 10° NW 23:33:33 46° WSW 23:33:33 46° WSW
USA 229 4.3 23:27:18 10° NW 23:33:40 47° WSW 23:33:40 47° WSW
Cosmos 1844 Rocket 3.5 23:39:31 42° ENE 23:39:31 42° ENE 23:43:38 10° NE
SL-4 R/B 4.4 23:41:43 20° ENE 23:41:43 20° ENE 23:43:17 10° ENE
Cosmos 2074 Rocket 3.9 23:37:12 10° N 23:43:22 86° N 23:43:22 86° N
Meteor 2-6 Rocket 4.5 23:48:14 60° NE 23:48:14 60° NE 23:52:46 10° NNE
Meteor 1-5 Rocket 4.4 23:42:13 10° NNW 23:47:20 71° NNW 23:47:20 71° NNW
